User: anonymous   Login
Location: Caltech
(34.1382°N, 118.1253°W)
Time: 09:15:00
(UTC-08:00)
Language:

ADEOS II - Orbit

View from above orbital plane
View from above orbital plane
View from above satellite
View from above satellite

Ground track
Ground track

The orbit data is extracted from the following two-line orbital elements,

1 27597U 02056A   16044.09285331  .00000163  00000-0  83550-4 0  9994
2 27597  98.3096  30.2880 0001200  37.4787   4.4507 14.27180441685514
Epoch (UTC): 13 February 2016 02:13:42
Eccentricity: 0.0001200
inclination: 98.3096°
perigee height: 800 km
apogee height: 802 km
right ascension of ascending node: 30.2880°
argument of perigee: 37.4787°
revolutions per day: 14.27180441
mean anomaly at epoch: 4.4507°
orbit number at epoch: 68551

The dashed part of the orbit path shows where the satellite is in the earth's shadow,  

DLR